This is the latest recevied weather packets stored in our database for station/object W4FXD. If no packets are shown the sender has not sent any weather packets the latest 10 day(s).
| Time | Temp. | Humidity | Pressure | Rain* | Wind** | Luminosity | Snow |
|---|---|---|---|---|---|---|---|
| 1777830237 | 15.56° C | 42% | 1020.5 hPa | 0 mm | - | 753 W/m² | - |
| 1777829937 | 15.56° C | 40% | 1020.5 hPa | 0 mm | - | 767 W/m² | - |
| 1777829633 | 15.56° C | 43% | 1020.7 hPa | 0 mm | - | 780 W/m² | - |
| 1777829330 | 15.56° C | 43% | 1020.8 hPa | 0 mm | - | 778 W/m² | - |
| 1777829028 | 15.56° C | 42% | 1020.4 hPa | 0 mm | - | 786 W/m² | - |
| 1777828724 | 15.56° C | 43% | 1020.7 hPa | 0 mm | - | 791 W/m² | - |
| 1777828421 | 15.56° C | 45% | 1020.8 hPa | 0 mm | - | 794 W/m² | - |
| 1777828118 | 15.56° C | 42% | 1020.9 hPa | 0 mm | - | 799 W/m² | - |
| 1777827814 | 15° C | 43% | 1021 hPa | 0 mm | - | 805 W/m² | - |
| 1777827511 | 15° C | 44% | 1021 hPa | 0 mm | - | 808 W/m² | - |
| 1777827209 | 15° C | 45% | 1021.1 hPa | 0 mm | - | 817 W/m² | - |
| 1777826905 | 15° C | 43% | 1021.3 hPa | 0 mm | - | 815 W/m² | - |
| 1777826603 | 14.44° C | 47% | 1021.5 hPa | 0 mm | - | 812 W/m² | - |
| 1777826298 | 14.44° C | 41% | 1021.4 hPa | 0 mm | - | 804 W/m² | - |
| 1777825997 | 15.56° C | 41% | 1021.3 hPa | 0 mm | - | 809 W/m² | - |
| 1777825693 | 15° C | 46% | 1021.2 hPa | 0 mm | - | 824 W/m² | - |
| 1777825391 | 15° C | 49% | 1021.4 hPa | 0 mm | - | 865 W/m² | - |
| 1777825088 | 14.44° C | 47% | 1021.2 hPa | 0 mm | - | 844 W/m² | - |
| 1777824784 | 15° C | 47% | 1021.4 hPa | 0 mm | - | 849 W/m² | - |
| 1777824481 | 15.56° C | 45% | 1021.4 hPa | 0 mm | - | 860 W/m² | - |
| 1777824177 | 15° C | 45% | 1021.3 hPa | 0 mm | - | 859 W/m² | - |
| 1777823872 | 13.89° C | 45% | 1021.5 hPa | 0 mm | - | 838 W/m² | - |
| 1777823571 | 14.44° C | 46% | 1021.5 hPa | 0 mm | - | 754 W/m² | - |
| 1777823267 | 15° C | 44% | 1021.7 hPa | 0 mm | - | 590 W/m² | - |
| 1777822965 | 14.44° C | 47% | 1021.9 hPa | 0 mm | - | 609 W/m² | - |
* Rain latest hour (hover to see other rain measurements)
** Current wind speed in m/s (hover to see current wind gust speed)